Location: Possagno
(45.8500°N, 11.8667°E)
Time: 09:46:49
(UTC+00:00)

STARLINK-2746 - Pass Details

Date: 30 July 2021
Orbit: 546 x 548 km, 53.1° (Epoch: 22 September)

Event Time Altitude Azimuth Distance (km) Brightness Sun altitude
Rises 19:59:01 0° 291° (WNW) 2,694 8.6 -11.5°
Reaches altitude 10° 20:01:50 10° 271° (W) 1,799 7.0 -11.9°
Maximum altitude 20:04:30 17° 230° (SW) 1,410 5.8 -12.2°
Drops below altitude 10° 20:07:09 10° 189° (S) 1,793 5.9 -12.6°
Enters shadow 20:07:41 - 184° (S) 1,937 6.0 -12.6°
